Theta_e
330 329 328 334 338 339 338 337 341 343 341 338 336 335 335 334 332 331 332 326 326 326 327 328 327 334 327 329 321 321 320 319
328 327 327 328 336 336 336 337 340 341 339 339 336 336 337 333 333 329 326 328 327 326 326 326 326 327 323 321 319 319 318 319
328 329 329 330 332 333 335 337 340 339 337 337 336 334 335 333 331 331 330 327 326 323 322 322 322 323 322 320 319 320 317 318
327 328 327 329 334 334 337 338 343 340 339 337 337 335 335 334 331 329 330 331 326 324 323 323 321 321 321 321 322 321 317 317
327 328 328 328 336 337 336 340 344 341 340 336 335 335 335 332 330 330 330 329 325 322 322 321 321 318 317 320 320 320 318 318
325 332 330 331 336 338 338 343 343 342 339 339 336 336 333 333 328 328 330 328 326 323 321 318 316 318 320 321 319 321 319 318
326 336 334 334 337 338 336 340 342 342 339 335 334 333 333 333 330 329 328 328 325 321 320 318 316 316 317 319 317 316 317 315
334 339 337 338 339 339 337 340 342 341 338 335 333 332 331 333 331 330 327 324 324 321 321 319 318 316 318 316 315 315 314 313
337 340 341 339 341 339 338 340 341 339 335 329 328 327 330 331 329 327 325 324 323 320 322 321 318 320 318 317 315 313 310 313
338 339 339 340 338 340 341 342 340 339 336 332 330 329 330 331 330 325 323 323 324 325 322 319 316 317 317 317 316 315 317 313
334 340 342 342 339 338 343 340 341 339 335 330 328 325 324 325 327 324 320 323 324 322 322 317 314 314 313 317 316 315 312 311
337 338 338 339 338 341 343 340 340 339 334 330 328 325 319 320 322 326 321 323 323 323 322 316 314 315 316 315 315 313 312 307
334 337 339 339 340 339 338 339 338 339 335 334 331 325 325 322 320 322 319 321 320 323 320 317 315 312 313 312 311 310 312 312
331 336 338 338 340 339 338 337 336 337 334 334 331 327 324 321 317 318 319 317 319 319 320 318 313 314 312 312 312 311 314 313
329 330 331 333 333 335 335 335 335 336 334 333 331 332 325 322 321 321 320 317 317 317 317 316 315 315 314 314 312 314 311 310
328 329 333 334 334 334 335 335 335 336 336 336 335 332 329 327 322 323 319 320 319 318 319 317 318 317 317 316 314 314 313 311
329 330 333 335 334 335 334 335 334 336 335 333 333 333 330 328 324 324 326 323 322 321 319 320 321 318 315 315 314 314 313 311
322 327 332 335 336 337 336 337 336 336 336 336 334 331 334 329 329 327 329 327 323 322 320 321 321 321 319 313 312 315 311 311
323 324 326 327 328 337 337 337 336 335 336 336 333 332 333 332 330 325 323 323 322 322 321 320 322 320 318 314 315 314 311 310
324 324 325 325 322 335 334 335 334 333 334 333 331 334 332 330 327 324 321 321 322 321 321 320 321 321 318 318 315 317 312 311
Wind_Speed
12 10 11 18 20 15 17 18 17 15 11 7 5 3 3 3 5 6 5 4 4 4 3 2 2 6 1 4 3 4 7 4
9 10 9 10 21 19 17 14 15 13 8 7 7 5 4 3 4 5 3 2 3 3 2 4 4 3 3 3 3 4 7 8
8 9 10 9 16 13 9 9 14 9 8 4 6 5 5 5 4 5 4 3 3 2 2 1 2 3 4 2 3 3 4 7
6 8 9 9 12 9 8 9 10 7 6 8 5 5 5 5 4 4 5 3 3 1 1 1 3 4 3 4 2 3 3 5
20 9 10 11 12 9 9 9 8 8 8 7 5 5 6 5 4 6 4 2 2 2 1 4 2 3 3 3 3 4 3 3
25 9 10 10 14 14 9 9 8 8 7 5 5 5 5 4 4 3 3 2 3 4 3 3 2 3 2 1 1 3 2 3
21 9 9 13 14 14 10 12 10 9 9 7 7 7 5 4 3 1 2 2 3 5 3 3 3 3 3 1 2 2 3 3
22 9 9 12 12 11 9 11 10 11 9 7 5 5 4 4 2 1 2 1 4 5 2 3 3 3 3 3 4 3 2 2
17 9 14 12 12 12 9 11 10 9 5 5 4 3 3 1 3 6 6 4 5 6 4 4 2 3 1 4 3 4 3 2
8 8 12 16 14 9 10 15 11 7 5 4 4 3 1 2 3 5 4 3 5 6 4 2 2 2 2 3 4 2 2 2
10 11 9 11 12 7 12 6 11 7 9 8 5 4 3 1 1 2 0 1 5 5 5 5 2 2 1 1 3 3 0 2
8 8 10 7 9 9 16 9 9 9 11 8 5 4 4 4 4 3 3 2 3 2 4 5 2 2 3 1 2 2 3 2
7 7 9 8 8 8 6 7 7 7 9 9 6 5 2 3 2 4 3 3 3 4 5 4 3 3 2 4 4 3 3 3
5 6 7 7 7 7 7 7 6 7 6 6 7 6 6 5 4 4 3 3 3 5 5 4 3 2 2 2 2 3 3 2
6 6 7 7 7 7 6 7 6 7 7 6 6 4 7 7 6 5 4 3 4 6 5 5 3 2 2 2 3 2 2 2
10 9 8 8 7 8 8 8 7 8 8 9 7 7 4 4 6 4 5 5 5 7 6 6 5 5 3 4 2 2 3 2
14 11 11 10 9 9 10 9 6 8 8 6 6 6 6 5 7 6 5 5 5 6 7 6 6 5 5 3 2 1 3 3
8 9 11 10 12 12 9 9 9 8 8 7 6 7 6 6 6 7 7 5 6 5 6 6 6 5 6 6 3 3 4 3
8 8 8 8 9 12 8 8 8 7 7 7 7 6 6 5 4 3 4 4 5 5 7 8 6 6 6 6 5 5 7 4
11 11 10 6 3 13 8 8 8 7 6 6 5 6 6 5 5 5 4 5 4 5 6 7 6 6 7 7 7 6 6 7
Wind_Direction
167 160 161 165 160 157 171 175 169 166 154 169 166 168 180 206 198 175 183 161 142 136 171 186 248 246 308 305 24 20 23 46
165 167 158 147 152 163 175 177 160 154 158 175 162 167 174 163 127 134 117 97 114 131 174 232 212 232 193 138 74 7 51 42
154 152 147 136 141 150 150 135 140 153 157 159 146 149 134 130 112 89 85 107 90 101 128 46 94 102 62 70 119 75 75 68
168 145 151 128 129 135 122 102 115 118 114 108 105 102 92 97 106 95 80 113 109 99 320 22 77 82 87 82 49 80 135 111
294 172 158 138 132 122 116 106 99 96 107 104 106 103 98 96 96 81 90 102 82 73 346 59 61 76 87 58 10 13 96 115
247 196 148 135 135 137 129 120 107 99 101 81 83 84 90 95 90 87 114 118 65 38 69 57 42 48 342 58 188 4 54 133
244 196 149 139 142 139 134 135 130 117 84 77 72 79 78 67 93 141 161 135 96 74 93 60 31 9 320 122 30 96 63 40
211 139 123 125 134 131 125 136 128 102 100 96 82 76 74 56 12 316 111 102 100 65 72 48 27 0 10 76 82 45 103 55
156 139 124 128 126 134 141 117 111 119 113 96 83 93 69 41 40 55 34 50 66 59 36 343 17 34 51 81 81 47 351 39
77 128 136 143 146 134 111 126 126 124 113 116 114 122 95 297 136 81 41 62 67 53 12 300 56 19 26 67 78 39 344 354
43 48 47 148 138 103 103 129 134 122 111 107 88 79 40 33 129 111 246 174 106 111 288 312 48 81 351 116 100 94 13 328
61 54 52 66 100 119 139 164 148 132 127 121 140 155 174 205 183 159 171 228 115 176 299 275 320 75 49 66 108 130 84 347
73 82 86 81 85 94 115 106 113 136 150 148 156 183 196 120 107 154 170 213 204 240 275 252 202 111 161 108 89 87 105 95
84 114 117 120 123 124 134 141 157 155 151 158 165 165 161 154 173 161 187 211 235 252 265 269 186 122 160 112 139 137 116 59
159 150 131 128 134 142 145 155 164 163 169 182 176 206 165 174 173 170 174 202 216 221 216 209 175 198 197 141 143 82 118 85
168 171 159 157 162 166 166 177 179 176 181 179 184 183 172 179 179 184 186 197 206 204 204 192 190 194 182 160 157 157 164 119
174 177 169 171 177 187 182 185 185 180 185 173 180 181 190 185 183 196 202 197 203 196 187 180 189 185 192 172 156 217 154 140
174 162 184 181 184 193 186 172 174 180 184 180 189 182 184 189 179 193 212 200 178 167 180 183 188 189 168 179 189 192 164 197
147 148 161 181 187 180 170 164 166 169 172 180 183 187 181 172 170 182 198 198 187 177 188 193 189 186 175 171 184 194 199 205
178 176 185 194 124 139 156 163 176 160 155 159 185 165 144 153 172 186 205 235 219 208 183 186 190 193 183 174 193 213 199 206